{"data":{"norad_id":62363,"intl_designator":"2024-244B","name":"O3B MPOWER F8","alt_names":[],"object_type":"PAYLOAD","status":"ACTIVE","operator":null,"country":"O3B","launch_date":"2024-12-17","launch_site_code":"AFETR","launch_vehicle":null,"mission":null,"orbit_class":"UNKNOWN","rcs_meters":null,"size_class":null,"mass_kg":null,"dimensions":null,"purposes":["comms"],"wikipedia_slug":null,"has_3d_model":false,"image_url":null,"decayed_at":null,"tle_current":{"epoch":"2026-09-19T18:58:43.163904Z","epoch_age_seconds":75568,"freshness":"FRESH","line1":"1 62363U 24244B   26262.79077736 -.00000027  00000+0  00000+0 0  9998","line2":"2 62363   0.0340  37.2304 0005195 131.5428 191.2405  5.00114761 25602","mean_motion":5.00114761,"eccentricity":0.0005195,"inclination_deg":0.034,"raan_deg":37.2304,"arg_perigee_deg":131.5428,"mean_anomaly_deg":191.2405,"bstar":0,"rev_number":2560,"period_min":287.93391283246,"perigee_km":8058.4007676684,"apogee_km":8073.408126732,"semimajor_km":14444.0414472,"source":"CELESTRAK","updated_at":"2026-09-20T09:00:35.690703Z"}}}